Location: Ciula Mare
(45.6000°N, 22.8167°E)
Time: 06:02:36
(UTC+00:00)

Cosmos 1461 - Pass Details

Date: 03 February 2023
Orbit: 492 x 643 km, 65.0° (Epoch: 29 March)

Event Time Altitude Azimuth Distance (km) Brightness Sun altitude
Rises 15:55:50 0° 177° (S) 2,717 6.6 -3.8°
Reaches altitude 10° 15:58:23 10° 161° (SSE) 1,859 5.5 -4.2°
Maximum altitude 16:01:34 21° 112° (ESE) 1,321 4.3 -4.8°
Drops below altitude 10° 16:04:53 10° 62° (ENE) 1,947 5.0 -5.3°
Enters shadow 16:06:04 - 54° (NE) 2,336 5.4 -5.5°
